• Join FlightAware (Why Join?)
  • Login
  • US Flag 
07:17PM EDT


 

Airport Tracker/Info


-or-


 

Live Flight TrackerFlight Track Log ✈ N449ND ✈ 18-Mar-2014 ✈ KRSW - KFPR

Flight Track Log - Related Links

Times and Time Zones

All times are in EDT time to prevent confusion due to time zone crossing. See the N449ND flight status page for this flight to view local times or setup timezone preferences in your user account.

Time Position Orientation Groundspeed Altitude Reporting Facility
EDT Latitude Longitude Course Direction KTS MPH feet Rate Location/Type
05:07PM 26.8358 -81.3389 49° Northeast 92 106 3,600  Level Miami Center
05:08PM 26.8564 -81.3075 54° Northeast 114 131 3,600  Level Miami Center
05:09PM 26.8769 -81.2778 52° Northeast 119 137 3,600  Level Miami Center
05:10PM 26.8986 -81.2481 51° Northeast 119 137 3,600  Level Miami Center
05:11PM 26.7034 -81.5036 53° Northeast  Level FlightAware Approximate
05:11PM 26.9167 -81.2175 56° Northeast 120 138 3,600  Level Miami Center
05:12PM 26.9367 -81.1858 55° Northeast 116 133 3,500  Descending Miami Center
05:13PM 26.9569 -81.1589 50° Northeast 116 133 3,600  Climbing Miami Center
05:14PM 26.9789 -81.1303 49° Northeast 114 131 3,500  Descending Miami Center
05:15PM 27.0000 -81.1000 52° Northeast 115 132 3,600  Climbing Miami Center
05:16PM 27.0200 -81.0706 53° Northeast 121 139 3,600  Level Miami Center
05:17PM 27.0400 -81.0400 54° Northeast 120 138 3,600  Level Miami Center
05:18PM 27.0636 -81.0108 48° Northeast 120 138 3,600  Level Miami Center
05:19PM 27.0856 -80.9808 51° Northeast 120 138 3,600  Level Miami Center
05:20PM 27.1081 -80.9506 50° Northeast 121 139 3,600  Level Miami Center
05:21PM 27.1294 -80.9203 52° Northeast 121 139 3,600 -60 Level Miami Center
05:22PM 27.1497 -80.8889 54° Northeast 120 138 3,500  Descending Miami Center
05:23PM 27.1708 -80.8581 52° Northeast 120 138 3,600  Climbing Miami Center
05:24PM 27.1917 -80.8264 54° Northeast 120 138 3,600  Level Miami Center
05:25PM 27.2125 -80.7964 52° Northeast 120 138 3,600 -60 Level Miami Center
05:27PM 27.2308 -80.7683 54° Northeast 117 135 3,500 -60 Descending Miami Center
05:28PM 27.2486 -80.7406 54° Northeast 107 123 3,500  Level Miami Center
05:29PM 27.2669 -80.7144 52° Northeast 106 122 3,600  Climbing Miami Center
05:30PM 27.2850 -80.6867 54° Northeast 104 120 3,500  Descending Miami Center
05:31PM 27.3025 -80.6592 54° Northeast 104 120 3,600  Climbing Miami Center
05:32PM 27.3208 -80.6322 53° Northeast 104 120 3,600  Level Miami Center
05:33PM 27.3400 -80.6069 50° Northeast 104 120 3,600 -60 Level Miami Center
05:34PM 27.3564 -80.5775 58° Northeast 105 121 3,500 -60 Descending Miami Center
05:35PM 27.3786 -80.5536 44° Northeast 106 122 3,500  Level Miami Center
05:36PM 27.4028 -80.5369 31° Northeast 106 122 3,500 -60 Level Miami Center
05:37PM 27.4283 -80.5189 32° Northeast 102 117 3,400 -120 Descending Miami Center